Weather Service Report


921 
ASUS41 KRLX 261010
RWRRLX
West Virginia Regional Weather Roundup
National Weather Service Charleston WV
500 AM EST FRI DEC 26 2014

Note: "fair" indicates few or no clouds below 12,000 feet with no
significant weather and/or obstructions to visibility.

WVZ003-261100-
Northern Panhandle of West Virginia
  
CITY           SKY/WX    TMP DP  RH WIND       PRES   REMARKS
WHEELING       CLEAR     32  27  81 S8        30.23R                  
$$

WVZ009-261100-
Northwest West Virginia
  
CITY           SKY/WX    TMP DP  RH WIND       PRES   REMARKS
PARKERSBURG    CLEAR     28  25  88 CALM      30.29R                  
$$

WVZ006-261100-
Western West Virginia
  
CITY           SKY/WX    TMP DP  RH WIND       PRES   REMARKS
HUNTINGTON     PTCLDY    27  26  96 CALM      30.24R                  
$$

WVZ015-261100-
West Central West Virginia
  
CITY           SKY/WX    TMP DP  RH WIND       PRES   REMARKS
CHARLESTON     PTCLDY    26  24  92 N3        30.23F FOG              
$$

WVZ022-031-261100-
North Central West Virginia
  
CITY           SKY/WX    TMP DP  RH WIND       PRES   REMARKS
CLARKSBURG     MIX PCPN  29  27  92 CALM      30.25R                  
MORGANTOWN     CLEAR     32  25  75 CALM      30.26R                  
$$

WVZ025-035-042-045-261100-
Southern West Virginia
  
CITY           SKY/WX    TMP DP  RH WIND       PRES   REMARKS
BECKLEY        CLEAR     28  25  88 S3        30.23R                  
LOGAN            N/A     34  30  86 CALM      30.22F                  
BLUEFIELD      PTCLDY    36  23  59 CALM      30.23R                  
LEWISBURG      PTCLDY    24  22  93 CALM      30.25S                  
$$

WVZ047-261100-
Northern Mountains of West Virginia
  
CITY           SKY/WX    TMP DP  RH WIND       PRES   REMARKS
ELKINS         CLEAR     24  23  96 CALM      30.25R                  
$$

WVZ052-261100-
Eastern Panhandle of West Virginia
  
CITY           SKY/WX    TMP DP  RH WIND       PRES   REMARKS
MARTINSBURG    CLEAR     32  25  75 SW5       30.26R                  
PETERSBURG     CLEAR     24  23  99 W3        30.28R                  
$$

Return to Home page


Western Regional Climate Center, wrcc@dri.edu